DW7067 Weather Reports


time (UTC)temp
F
wind
direction
speed
knots
gust
knots
rain 1hr
in
rain 24hr
in
rain mn
in
humidity
%
barometer
mb
20260507184004 54 292 3.5 5.2 0.00 0.00 0.00 47 1010.2
20260507183004 54 252 4.3 12.2 0.00 0.00 0.00 47 1010.4
20260507182004 55 227 2.6 12.2 0.00 0.00 0.00 45 1010.2
20260507181004 54 264 4.3 10.4 0.00 0.00 0.00 50 1010.3
20260507180004 54 274 3.5 11.3 0.00 0.00 0.00 46 1010.5
20260507175004 54 265 3.5 12.2 0.00 0.00 0.00 48 1010.5
20260507174004 54 241 4.3 7.0 0.00 0.00 0.00 50 1010.6
20260507171004 54 253 4.3 9.6 0.00 0.00 0.00 48 1011.1
20260507165003 55 251 3.5 13.0 0.00 0.00 0.00 48 1011.1
20260507164004 54 161 2.6 8.7 0.00 0.00 0.00 52 1011.2
20260507163004 52 272 2.6 8.7 0.00 0.00 0.00 52 1011.5
20260507162004 52 236 3.5 6.1 0.00 0.00 0.00 52 1011.6
20260507161004 52 244 3.5 10.4 0.00 0.00 0.00 54 1011.8
20260507160004 52 258 2.6 8.7 0.00 0.00 0.00 55 1011.7
20260507155004 52 249 2.6 4.3 0.00 0.00 0.00 53 1011.7
20260507154004 52 261 3.5 7.8 0.00 0.00 0.00 52 1011.8
20260507153004 53 207 3.5 8.7 0.00 0.00 0.00 54 1011.9
20260507152004 52 245 4.3 10.4 0.00 0.00 0.00 56 1011.9
20260507151004 50 275 4.3 12.2 0.00 0.00 0.00 54 1012.1
20260507150005 51 220 3.5 7.8 0.00 0.00 0.00 56 1012.2
20260507145004 52 240 3.5 7.8 0.00 0.00 0.00 53 1012.2
20260507144004 52 251 3.5 8.7 0.00 0.00 0.00 55 1012.3
20260507142004 52 239 2.6 12.2 0.00 0.01 0.00 59 1012.5
20260507141003 51 267 2.6 7.8 0.00 0.01 0.00 63 1012.6
20260507140005 50 257 4.3 9.6 0.00 0.01 0.00 63 1012.6
20260507135004 50 255 3.5 9.6 0.00 0.01 0.00 63 1012.7
20260507134004 49 234 2.6 9.6 0.00 0.02 0.00 64 1012.8
20260507133004 48 220 1.7 5.2 0.00 0.05 0.00 70 1012.9
20260507132004 47 147 1.7 4.3 0.00 0.05 0.00 73 1012.9
20260507131004 45 144 2.6 5.2 0.00 0.05 0.00 77 1012.9
20260507130004 43 205 2.6 7.0 0.00 0.06 0.00 83 1013.0
20260507125005 42 240 1.7 5.2 0.00 0.06 0.00 91 1013.0
20260507124004 40 241 0.9 3.5 0.00 0.06 0.00 95 1013.1
20260507123003 38 241 0.0 0.9 0.00 0.06 0.00 97 1013.2
20260507122004 37 241 0.9 2.6 0.00 0.07 0.00 97 1013.3
20260507121004 36 241 0.9 2.6 0.00 0.08 0.00 97 1013.2
20260507120004 34 241 0.9 1.7 0.00 0.09 0.00 96 1013.3
20260507115004 33 0 0.0 1.7 0.00 0.11 0.00 96 1013.4
20260507114004 31 0 0.0 0.0 0.00 0.12 0.00 96 1013.3
20260507113004 31 0 0.0 0.0 0.00 0.15 0.00 95 1013.3
20260507112004 30 0 0.0 0.0 0.00 0.20 0.00 95 1013.2
20260507111004 30 0 0.0 0.0 0.00 0.23 0.00 95 1013.1
20260507110004 30 0 0.0 0.0 0.00 0.24 0.00 95 1013.0
20260507105004 30 0 0.0 0.0 0.00 0.25 0.00 94 1013.0
20260507103004 30 0 0.0 0.0 0.00 0.27 0.00 94 1012.7
20260507102006 30 0 0.0 0.0 0.00 0.28 0.00 94 1012.7
20260507101003 30 0 0.0 0.0 0.00 0.29 0.00 94 1012.7
20260507100004 30 0 0.0 0.0 0.00 0.31 0.00 94 1012.7
20260507095004 30 0 0.0 0.0 0.00 0.33 0.00 94 1012.6
20260507094004 30 0 0.0 0.0 0.00 0.35 0.00 94 1012.7
20260507093004 31 0 0.0 0.0 0.00 0.37 0.00 94 1012.8
20260507092004 31 0 0.0 0.0 0.00 0.38 0.00 94 1012.9
20260507091004 31 0 0.0 0.0 0.00 0.40 0.00 94 1012.8
20260507090004 31 0 0.0 0.0 0.00 0.41 0.00 94 1012.8
20260507085004 32 0 0.0 0.0 0.00 0.43 0.00 94 1012.8
20260507084004 32 0 0.0 0.0 0.00 0.45 0.00 94 1012.9
20260507083004 32 0 0.0 0.0 0.00 0.47 0.00 94 1013.0
20260507082004 32 0 0.0 0.0 0.00 0.49 0.00 94 1013.1
20260507081004 33 0 0.0 0.0 0.00 0.51 0.00 94 1013.2
20260507080004 33 0 0.0 0.0 0.00 0.53 0.00 93 1013.1
20260507073004 34 0 0.0 0.0 0.00 0.57 0.00 93 1012.8
20260507072004 35 0 0.0 0.0 0.00 0.59 0.00 93 1012.8
20260507070008 36 0 0.0 0.0 0.00 0.61 0.00 93 1012.9
20260507065004 36 0 0.0 0.0 0.00 0.62 0.00 92 1012.9
20260507064004 37 0 0.0 0.9 0.00 0.63 0.00 92 1013.0
20260507062004 38 0 0.0 0.0 0.00 0.65 0.00 91 1012.9
20260507061004 39 0 0.0 0.0 0.00 0.66 0.00 92 1013.0
20260507060004 40 0 0.0 0.9 0.00 0.68 0.00 92 1013.2
20260507055004 40 0 0.0 0.0 0.00 0.68 0.00 92 1013.2
20260507053005 40 0 0.0 0.0 0.00 0.68 0.00 92 1013.3
20260507052004 40 0 0.0 0.0 0.00 0.68 0.00 92 1013.3
20260507051004 40 0 0.0 0.0 0.00 0.68 0.00 93 1013.4
20260507050005 40 0 0.0 0.0 0.00 0.68 0.00 92 1013.4
20260507045004 40 0 0.0 1.7 0.00 0.68 0.00 92 1013.6
20260507043004 40 0 0.0 0.0 0.00 0.68 0.00 92 1013.3
20260507042004 40 0 0.0 0.0 0.00 0.68 0.00 92 1013.2
20260507041004 41 0 0.0 0.9 0.00 0.68 0.00 91 1013.2
20260507040006 40 0 0.0 0.0 0.00 0.68 0.00 90 1013.3
20260507035004 41 0 0.0 0.0 0.00 0.68 0.68 90 1013.4
20260507034004 41 0 0.0 0.0 0.00 0.68 0.68 90 1013.4
20260507031004 41 0 0.0 0.0 0.00 0.68 0.68 88 1013.0
20260507030004 42 0 0.0 0.0 0.00 0.68 0.68 88 1012.9
20260507025004 42 0 0.0 0.9 0.00 0.68 0.68 87 1012.7
20260507023004 42 0 0.0 0.0 0.00 0.68 0.68 85 1012.6
20260507022004 43 0 0.0 0.0 0.00 0.68 0.68 83 1012.7
20260507021004 43 0 0.0 0.0 0.00 0.68 0.68 82 1012.7
20260507020004 44 0 0.0 0.0 0.00 0.68 0.68 82 1012.8
20260507015004 44 0 0.0 0.0 0.00 0.68 0.68 80 1012.9
20260507014004 44 241 0.0 2.6 0.00 0.68 0.68 79 1012.8
20260507013004 44 241 0.9 3.5 0.00 0.68 0.68 79 1012.9
20260507012004 45 0 0.0 3.5 0.00 0.68 0.68 81 1013.0
20260507011004 45 0 0.0 0.9 0.00 0.68 0.68 81 1013.1
20260507010004 45 0 0.0 0.0 0.00 0.68 0.68 80 1013.2
20260507005004 45 241 0.9 2.6 0.00 0.68 0.68 78 1013.0
20260507004004 46 241 0.9 2.6 0.00 0.68 0.68 75 1013.1
20260507003004 46 241 0.9 2.6 0.00 0.68 0.68 75 1012.9
20260507002004 46 241 0.9 3.5 0.00 0.68 0.68 72 1012.5
20260507001004 47 244 0.9 4.3 0.00 0.68 0.68 72 1012.6
20260507000004 47 250 0.9 3.5 0.00 0.68 0.68 71 1012.1
20260506235004 47 250 1.7 5.2 0.00 0.69 0.68 72 1012.1
20260506233004 48 252 2.6 7.0 0.00 0.75 0.68 71 1011.7
20260506232004 48 255 1.7 8.7 0.00 0.78 0.68 71 1011.6
20260506225004 49 262 1.7 4.3 0.00 0.78 0.68 77 1011.2
20260506223004 49 235 1.7 7.8 0.00 0.78 0.68 81 1011.0
20260506222004 49 245 0.9 5.2 0.00 0.78 0.68 84 1011.0
20260506220004 49 295 0.9 3.5 0.00 0.78 0.68 84 1010.9
20260506215006 49 296 0.9 3.5 0.00 0.78 0.68 84 1010.7
20260506214004 49 295 0.9 3.5 0.00 0.78 0.68 83 1010.7
20260506213004 49 295 0.9 2.6 0.00 0.78 0.68 84 1010.5
20260506212004 49 296 0.9 3.5 0.00 0.78 0.68 84 1010.2
20260506211004 49 296 1.7 2.6 0.00 0.78 0.68 84 1010.3
20260506210004 49 282 1.7 7.8 0.00 0.78 0.68 84 1010.5
20260506205004 49 273 0.9 7.0 0.00 0.78 0.68 85 1010.6
20260506204004 49 275 1.7 4.3 0.00 0.78 0.68 85 1010.3
20260506203004 49 276 1.7 6.1 0.00 0.78 0.68 85 1010.3
20260506202004 49 284 2.6 7.0 0.00 0.78 0.68 86 1010.2
20260506200005 50 249 3.5 8.7 0.00 0.78 0.68 87 1010.3
20260506195005 50 267 1.7 8.7 0.00 0.78 0.68 87 1010.0
20260506194004 50 255 1.7 5.2 0.00 0.78 0.68 87 1009.8
20260506192004 50 251 2.6 7.8 0.00 0.78 0.68 88 1010.0
20260506191004 50 239 2.6 6.1 0.00 0.78 0.68 89 1009.7